Weather History for Manchester, NH

Change the Weather History Date:

Wednesday, December 5, 2012

  Actual Average Record
Temperature  
Mean Temperature 44 °F -  
Max Temperature 55 °F 40 °F 68 °F (1982)
Min Temperature 30 °F 21 °F 2 °F (1989)
Degree Days  
Heating Degree Days 22    
Moisture  
Dew Point 35 °F    
Average Humidity 64    
Maximum Humidity 89    
Minimum Humidity 43    
Precipitation  
Precipitation 0.05 in - - ()
Sea Level Pressure  
Sea Level Pressure 29.97 in    
Wind  
Wind Speed 11 mph (WNW)    
Max Wind Speed 18 mph    
Max Gust Speed 31 mph    
Visibility 10 miles    
Events Rain    
Averages and records for this station are not official NWS values.
T = Trace of Precipitation, MM = Missing Value Source: NWS Daily Summary

Daily Weather History Graph

Daily Weather History Graph

Search for Another Location

Airport:

Trip Planner

Search our weather history database for the weather conditions in past years. The results will help you decide how hot, cold, wet, or windy it might be!

Date:

Astronomy

Dec. 05, 2012 Rise Set
Actual Time 7:01 AM EST 4:11 PM EST
Civil Twilight 6:29 AM EST 4:43 PM EST
Nautical Twilight 5:54 AM EST 5:18 PM EST
Astronomical Twilight 5:19 AM EST 5:53 PM EST
Moon 11:05 PM EST (12/5) 11:17 AM EST (12/5)
Length of Visible Light 10h 13m
Length of Day
9h 09m
Waning Gibbous, 60% of the Moon is Illuminated
Dec 5
Waning Gibbous
Dec 6
Last Quarter
Dec 13
New
Dec 20
First Quarter
Dec 28
Full

Hourly Weather History & Observations

Time (EST) Temp. Windchill Dew Point Humidity Pressure Visibility Wind Dir Wind Speed Gust Speed Precip Events Conditions
12:28 AM 55.4 °F - 51.8 °F 88% 29.90 in 8.0 mi South 12.7 mph 19.6 mph N/A   Scattered Clouds
12:53 AM 55.9 °F - 52.0 °F 87% 29.93 in 9.0 mi South 13.8 mph 19.6 mph N/A   Mostly Cloudy
1:53 AM 55.9 °F - 52.0 °F 87% 29.91 in 9.0 mi South 10.4 mph - N/A   Clear
2:53 AM 55.9 °F - 52.0 °F 87% 29.88 in 9.0 mi South 4.6 mph - N/A   Mostly Cloudy
3:53 AM 55.9 °F - 52.0 °F 87% 29.83 in 10.0 mi South 10.4 mph - 0.00 in   Overcast
4:53 AM 55.0 °F - 52.0 °F 89% 29.86 in 5.0 mi SW 4.6 mph - 0.03 in Rain Light Rain
5:10 AM 55.4 °F - 50.0 °F 82% 29.84 in 7.0 mi WNW 16.1 mph 21.9 mph 0.01 in Rain Light Rain
5:23 AM 53.6 °F - 46.4 °F 77% 29.83 in 10.0 mi WNW 6.9 mph - 0.01 in   Overcast
5:53 AM 53.1 °F - 46.0 °F 77% 29.89 in 10.0 mi WNW 8.1 mph - 0.01 in   Overcast
6:53 AM 51.1 °F - 45.0 °F 80% 29.90 in 10.0 mi WNW 5.8 mph - 0.01 in   Overcast
7:53 AM 51.1 °F - 41.0 °F 68% 29.91 in 10.0 mi West 9.2 mph 20.7 mph N/A   Mostly Cloudy
9:53 AM 52.0 °F - 37.9 °F 59% 29.94 in 10.0 mi West 9.2 mph 16.1 mph N/A   Partly Cloudy
10:53 AM 52.0 °F - 32.0 °F 47% 29.93 in 10.0 mi WNW 11.5 mph 21.9 mph N/A   Scattered Clouds
11:53 AM 53.1 °F - 30.9 °F 43% 29.92 in 10.0 mi West 6.9 mph 21.9 mph N/A   Mostly Cloudy
12:53 PM 52.0 °F - 30.0 °F 43% 29.91 in 10.0 mi West 11.5 mph 19.6 mph N/A   Mostly Cloudy
1:53 PM 48.9 °F - 32.0 °F 52% 29.93 in 10.0 mi NW 12.7 mph 19.6 mph N/A   Mostly Cloudy
2:53 PM 46.9 °F - 28.9 °F 50% 29.95 in 10.0 mi WNW 18.4 mph 24.2 mph N/A   Mostly Cloudy
3:53 PM 44.1 °F 36.8 °F 27.0 °F 51% 29.99 in 10.0 mi WNW 16.1 mph 21.9 mph N/A   Overcast
4:53 PM 41.0 °F 33.5 °F 21.9 °F 47% 30.03 in 10.0 mi WNW 13.8 mph 31.1 mph N/A   Overcast
5:53 PM 39.9 °F 31.4 °F 21.9 °F 49% 30.05 in 10.0 mi NW 16.1 mph 21.9 mph N/A   Overcast
6:53 PM 36.0 °F 26.3 °F 24.1 °F 62% 30.09 in 10.0 mi NNW 16.1 mph 24.2 mph 0.00 in   Overcast
7:53 PM 36.0 °F 26.3 °F 19.9 °F 52% 30.11 in 10.0 mi NW 16.1 mph 23.0 mph N/A   Overcast
8:53 PM 34.0 °F 23.4 °F 15.1 °F 46% 30.13 in 10.0 mi NNW 17.3 mph 26.5 mph N/A   Overcast
9:53 PM 33.1 °F 23.9 °F 15.1 °F 48% 30.14 in 10.0 mi NW 12.7 mph 26.5 mph N/A   Partly Cloudy
10:53 PM 32.0 °F 20.8 °F 12.9 °F 45% 30.16 in 10.0 mi NW 17.3 mph 31.1 mph N/A   Partly Cloudy
11:53 PM 30.9 °F 22.2 °F 14.0 °F 50% 30.18 in 10.0 mi NW 10.4 mph 20.7 mph N/A   Mostly Cloudy